OTB-3-GAZELLE

Last updated on Tue Jul 01 2025 00:02:41 GMT+0000 (Coordinated Universal Time)

1 54023U 22127A 25181.54567253 .00000104 00000+0 44464-4 0 9992 2 54023 98.3674 174.1689 0013475 164.3066 195.8544 14.42515483143668
UTC large
Height (km)
Speed (km/s)
/
Latitude / Longitude
Inclination (degrees)
Orbital Period (minutes)
Azimuth
Elevation
Range (km)
Doppler Factor

Next 0 passes for location: London (51.5072 / 0.1276)

Sorry there are no passes over London.